Change the Weather History Date:

Friday, October 4, 2013

  Actual Average Record
Temperature  
Mean Temperature 54 °F 61 °F  
Max Temperature 70 °F 81 °F 95 °F (1987)
Min Temperature 38 °F 41 °F 29 °F (1969)
Degree Days  
Heating Degree Days 11 5  
Month to date heating degree days 26 17  
Since 1 July heating degree days 82 60  
Cooling Degree Days 0 1  
Month to date cooling degree days 0 4  
Year to date cooling degree days 1337 1100  
Growing Degree Days 4 (Base 50)    
Moisture  
Dew Point 11 °F    
Average Humidity 22    
Maximum Humidity 37    
Minimum Humidity 7    
Precipitation  
Precipitation 0.00 in 0.01 in 0.92 in (2010)
Month to date precipitation 0.00 0.04  
Year to date precipitation 1.11 3.60  
Snow  
Snow 0.00 in 0.00 in - ()
Month to date snowfall 0.0 0.0  
Since 1 July snowfall 0.0 0.0  
Since 1 September snowfall 0.0 0.0  
Snow Depth 0.00 in    
Sea Level Pressure  
Sea Level Pressure 30.22 in    
Wind  
Wind Speed 10 mph (North)    
Max Wind Speed 21 mph    
Max Gust Speed 25 mph    
Visibility 10 miles    
Events      
T = Trace of Precipitation, MM = Missing Value Source: NWS Daily Summary

Daily Weather History Graph

Daily Weather History Graph

Search for Another Location

Airport or City:

Trip Planner

Search our weather history database for the weather conditions in past years. The results will help you decide how hot, cold, wet, or windy it might be!

Date:

Astronomy

Oct. 04, 2013 Rise Set
Actual Time 6:51 AM PDT 6:31 PM PDT
Civil Twilight 6:25 AM PDT 6:57 PM PDT
Nautical Twilight 5:55 AM PDT 7:27 PM PDT
Astronomical Twilight 5:25 AM PDT 7:58 PM PDT
Moon 6:32 AM PDT (10/4) 6:17 PM PDT (10/4)
Length of Visible Light 12h 31m
Length of Day
11h 39m
Waning Crescent, 0% of the Moon is Illuminated
Oct 4
Waning Crescent
Oct 4
New
Oct 11
First Quarter
Oct 18
Full
Oct 26
Last Quarter

Hourly Weather History & Observations

Time (PDT) Temp. Windchill Dew Point Humidity Pressure Visibility Wind Dir Wind Speed Gust Speed Precip Events Conditions
12:56 AM 46.9 °F - 12.9 °F 25% 30.11 in 10.0 mi North 12.7 mph - N/A   Clear
1:56 AM 45.0 °F 38.5 °F 12.9 °F 27% 30.14 in 10.0 mi North 13.8 mph - N/A   Clear
2:56 AM 46.0 °F 40.6 °F 14.0 °F 28% 30.13 in 10.0 mi North 11.5 mph 19.6 mph N/A   Clear
3:56 AM 43.0 °F 38.2 °F 15.1 °F 32% 30.15 in 10.0 mi NW 8.1 mph - N/A   Clear
4:56 AM 42.1 °F 36.6 °F 16.0 °F 35% 30.17 in 10.0 mi NNW 9.2 mph - N/A   Clear
5:56 AM 39.0 °F 34.0 °F 15.1 °F 38% 30.21 in 10.0 mi NNW 6.9 mph - N/A   Clear
6:56 AM 44.1 °F 38.1 °F 16.0 °F 32% 30.23 in 10.0 mi North 11.5 mph - N/A   Clear
7:56 AM 46.0 °F 42.5 °F 16.0 °F 30% 30.26 in 10.0 mi NW 6.9 mph - N/A   Clear
8:56 AM 51.1 °F - 17.1 °F 26% 30.27 in 10.0 mi North 16.1 mph 24.2 mph N/A   Clear
9:56 AM 54.0 °F - 16.0 °F 22% 30.28 in 10.0 mi North 12.7 mph 25.3 mph N/A   Clear
10:56 AM 57.9 °F - 15.1 °F 19% 30.27 in 10.0 mi North 12.7 mph 19.6 mph N/A   Clear
11:56 AM 62.1 °F - 12.9 °F 15% 30.26 in 10.0 mi North 13.8 mph 23.0 mph N/A   Clear
12:56 PM 64.0 °F - 10.0 °F 12% 30.22 in 10.0 mi North 11.5 mph - N/A   Clear
1:56 PM 64.9 °F - 7.0 °F 10% 30.18 in 10.0 mi Variable 5.8 mph - N/A   Clear
2:56 PM 68.0 °F - 3.9 °F 8% 30.16 in 10.0 mi NW 9.2 mph - N/A   Clear
3:56 PM 70.0 °F - 1.9 °F 7% 30.16 in 10.0 mi North 6.9 mph - N/A   Clear
4:56 PM 70.0 °F - 1.9 °F 7% 30.16 in 10.0 mi North 6.9 mph - N/A   Clear
5:56 PM 64.9 °F - 5.0 °F 9% 30.18 in 10.0 mi North 10.4 mph - N/A   Clear
6:56 PM 55.9 °F - 8.1 °F 15% 30.21 in 10.0 mi North 9.2 mph - N/A   Clear
7:56 PM 52.0 °F - 10.9 °F 19% 30.24 in 10.0 mi North 9.2 mph - N/A   Clear
8:56 PM 52.0 °F - 10.0 °F 19% 30.26 in 10.0 mi Calm Calm - N/A   Clear
9:56 PM 53.1 °F - 10.9 °F 19% 30.27 in 10.0 mi North 12.7 mph - N/A   Clear
10:56 PM 46.9 °F - 10.9 °F 23% 30.30 in 10.0 mi NW 5.8 mph - N/A   Clear
11:56 PM 43.0 °F 37.2 °F 10.9 °F 27% 30.30 in 10.0 mi NW 10.4 mph - N/A   Clear